STARLINK-33889 (63829 NORAD) Tracking and Keplerian Element Data

This shows tracking and keplerian element data for the satellite.

Feedback or suggestion? Click here.




ElementValue
Catalog63829
NameSTARLINK-33889
Epoch Orbit3639
Epoch Day354.1588983
Epoch Year2025
RAAN261.5102
Inclination43.0019
Eccentricity0.0003254
Argument of Perigee263.6976
Mean Anonmoly96.3505
Mean Motion15.27609631
Decay Rate0.00024052
L11 63829U 25092AB 25354.15889830 .00024052 00000+0 87983-3 0 9997
L22 63829 43.0019 261.5102 0003254 263.6976 96.3505 15.27609631 36396



Live tracking and technical data element details for STARLINK-33889 (NORAD 63829). STARLINK-33889 can be tracked NOW for your location showing map with azimuth and elevation plus other details from your city location.







IsCatalogInMostPopularTable: catalog: 63829, numindb: 6
Update: records affected: 1



GetName: 63829 STARLINK-33889

Hit Count: updated at: Mon, 20 Apr 2026 09:16:06 GMT